Погода в Калмаше

Россия / Республика Татарстан     55°43′56″N   52°38′07″E
темп.,
°C
ветер,
м/с
пор.,
м/с
влажн.,
%
обл.,
%
осадки,
мм/ч
давл.,
гПа
погр.,
м
15 апреля, чт
чт1500:00+10ю227927 0.0 102521
03:00+9ю22845 0.0 102411
06:00+9ю22790 0.0 102446
09:00+15ю35550 0.0 1023334
12:00+19ююз46410 0.0 10211157
15:00+20юз46364 0.0 10201641
18:00+16юз22520 0.0 101913
21:00+13зюз11601 0.0 102010
16 апреля, пт
пт1600:00+11св11661 0.0 102010
03:00+8св6109696 0.0 1022316
06:00+6св6128537 0.0 1024464
09:00+8всв797397 0.0 1025587
12:00+10всв686286 0.0 1025708
15:00+12всв675117 0.0 1025955
18:00+10всв47695 0.0 1025156
21:00+6ссв37795 0.0 1026138
17 апреля, сб
сб1700:00+4св49700 0.0 1027197
03:00+2ссв38740 0.0 1027155
06:00+3св39700 0.0 1028248
09:00+8св57490 0.0 1028660
12:00+11св56330 0.0 10271112
15:00+11св45340 0.0 10261311
18:00+9ссв35495 0.0 1026115
21:00+6ссв22560 0.0 102612
18 апреля, вс
вс1800:00+4ссз22650 0.0 102510
03:00+3ссз22731 0.0 102511
06:00+4ссз24725 0.0 1024134
09:00+9с45523 0.0 1024770
12:00+11ссв56468 0.0 10231561
15:00+8св895888 0.0 1025889
18:00+6св8104359 0.0 10261047
21:00+3св613496 0.0 1027510
19 апреля, пн
пн1900:00+1всв713575 0.0 1029618
03:00−1всв714590 0.0 1031563
06:000всв812490 0.0 1032891
09:00+3в911325 0.0 10331450
12:00+5всв810280 0.0 10331669
15:00+5всв89270 0.0 10321740
18:00+4всв610350 0.0 1033604
21:00+1всв410480 0.0 1034273